Location: Chandolas
(44.4033°N, 4.2533°E)
Time: 01:11:17
(UTC+00:00)

Cosmos 1356 Rocket - Pass Details

Date: 15 November 2019
Orbit: 544 x 598 km, 81.2° (Epoch: 05 December)

Event Time Altitude Azimuth Distance (km) Brightness Sun altitude
Exits shadow 04:11:55 35° 20° (NNE) 978 4.6 -26.1°
Maximum altitude 04:13:25 53° 76° (ENE) 738 4.2 -25.9°
Drops below altitude 10° 04:17:36 10° 154° (SSE) 1,925 6.4 -25.1°
Sets 04:19:50 0° 159° (SSE) 2,816 7.2 -24.7°
